SDR81EF LGIR-HEMA

Flight info

Callsign SDR81EF
Flight time 1h 52m
Altitude 39000
Route SIT UL607 PAXIS Y707 OBRAN L321 REXUM M872 HGD L315 SOBEL V730 SIBRI SIBRI1E
Aircraft A320/M-SDE3FGHIRWY/LB1

Departure

Time 2026-04-30 08:46
Airport Heraklion International Nikos Kazantzakis Airport (LGIR)

Arrival

Time 2026-04-30 10:38
Airport Marsa Alam International Airport (HEMA)
Time Latitude Longitude Altitude Speed Heading
2026-04-30 08:31 35.33869 25.17547 91 ft 0 kts 314°
2026-04-30 08:42 35.33871 25.17545 91 ft 3 kts 314°
2026-04-30 08:42 35.33904 25.17493 91 ft 13 kts 296°
2026-04-30 08:42 35.33922 25.17350 91 ft 20 kts 274°
2026-04-30 08:43 35.33934 25.17170 90 ft 23 kts 275°
2026-04-30 08:43 35.33949 25.16961 90 ft 26 kts 275°
2026-04-30 08:43 35.33968 25.16760 91 ft 17 kts 284°
2026-04-30 08:43 35.34040 25.16631 91 ft 20 kts 308°
2026-04-30 08:44 35.34084 25.16466 92 ft 22 kts 275°
2026-04-30 08:44 35.34096 25.16269 91 ft 18 kts 276°
2026-04-30 08:44 35.34125 25.16154 91 ft 12 kts 271°
2026-04-30 08:44 35.34104 25.16157 93 ft 4 kts 92°
2026-04-30 08:45 35.34104 25.16173 92 ft 0 kts 94°
2026-04-30 08:45 35.34096 25.16296 91 ft 53 kts 95°
2026-04-30 08:45 35.34041 25.17084 93 ft 129 kts 95°
2026-04-30 08:45 35.33950 25.18395 355 ft 165 kts 94°
2026-04-30 08:46 35.33843 25.19786 1225 ft 166 kts 95°
2026-04-30 08:46 35.33733 25.21199 2052 ft 170 kts 94°
2026-04-30 08:46 35.33641 25.22717 2619 ft 187 kts 94°
2026-04-30 08:46 35.33556 25.24370 3201 ft 202 kts 92°
2026-04-30 08:47 35.33480 25.26158 3733 ft 221 kts 92°
2026-04-30 08:47 35.33411 25.28021 4188 ft 246 kts 92°
2026-04-30 08:47 35.33317 25.30213 4905 ft 267 kts 93°
2026-04-30 08:47 35.33194 25.32518 5951 ft 275 kts 94°
2026-04-30 08:48 35.33056 25.34884 7047 ft 280 kts 94°
2026-04-30 08:48 35.32912 25.37275 8111 ft 283 kts 94°
2026-04-30 08:48 35.32769 25.39674 9201 ft 287 kts 94°
2026-04-30 08:48 35.32620 25.42150 10290 ft 288 kts 93°
2026-04-30 08:49 35.32474 25.44604 11076 ft 298 kts 93°
2026-04-30 08:49 35.32322 25.47193 11824 ft 309 kts 93°
2026-04-30 08:49 35.32167 25.49889 12462 ft 325 kts 93°
2026-04-30 08:49 35.32006 25.52716 13130 ft 338 kts 93°
2026-04-30 08:50 35.31837 25.55643 13783 ft 351 kts 93°
2026-04-30 08:50 35.31658 25.58676 14384 ft 361 kts 93°
2026-04-30 08:50 35.31474 25.61770 14984 ft 365 kts 93°
2026-04-30 08:50 35.31290 25.64851 15590 ft 369 kts 93°
2026-04-30 08:51 35.31102 25.68010 16228 ft 373 kts 93°
2026-04-30 08:51 35.30914 25.71202 16853 ft 377 kts 93°
2026-04-30 08:51 35.30722 25.74419 17506 ft 380 kts 93°
2026-04-30 08:51 35.30524 25.77676 18165 ft 384 kts 93°
2026-04-30 08:52 35.30322 25.80963 18775 ft 388 kts 93°
2026-04-30 08:52 35.30235 25.82378 19023 ft 390 kts 93°
2026-04-30 08:52 35.30042 25.85476 19577 ft 393 kts 93°
2026-04-30 08:52 35.29836 25.88794 20179 ft 397 kts 93°
2026-04-30 08:53 35.29614 25.92180 20798 ft 401 kts 96°
2026-04-30 08:53 35.28942 25.95519 21435 ft 406 kts 111°
2026-04-30 08:53 35.27584 25.98572 22078 ft 410 kts 127°
2026-04-30 08:53 35.25618 26.01103 22739 ft 412 kts 142°
2026-04-30 08:54 35.23347 26.03263 23416 ft 415 kts 143°
2026-04-30 08:54 35.21059 26.05423 24026 ft 418 kts 143°
2026-04-30 08:54 35.18739 26.07618 24536 ft 424 kts 143°
2026-04-30 08:54 35.16416 26.09821 24918 ft 431 kts 143°
2026-04-30 08:55 35.14037 26.12079 25387 ft 435 kts 143°
2026-04-30 08:55 35.11631 26.14364 25865 ft 439 kts 144°
2026-04-30 08:55 35.09205 26.16662 26334 ft 443 kts 144°
2026-04-30 08:55 35.06750 26.18981 26786 ft 447 kts 144°
2026-04-30 08:56 35.04314 26.21370 27230 ft 451 kts 142°
2026-04-30 08:56 35.03497 26.22200 27373 ft 452 kts 142°
2026-04-30 08:56 34.97047 26.29021 28511 ft 463 kts 140°
2026-04-30 08:57 34.94659 26.31568 28921 ft 466 kts 141°
2026-04-30 08:57 34.92198 26.34168 29319 ft 470 kts 141°
2026-04-30 08:57 34.89701 26.36777 29710 ft 473 kts 141°
2026-04-30 08:57 34.87181 26.39386 30088 ft 477 kts 142°
2026-04-30 08:58 34.84638 26.42006 30408 ft 480 kts 142°
2026-04-30 08:58 34.82074 26.44640 30718 ft 483 kts 142°
2026-04-30 08:58 34.79500 26.47289 31017 ft 486 kts 142°
2026-04-30 08:58 34.76903 26.49968 31314 ft 489 kts 142°
2026-04-30 08:59 34.74304 26.52653 31596 ft 492 kts 142°
2026-04-30 08:59 34.71686 26.55363 31868 ft 495 kts 142°
2026-04-30 08:59 34.69054 26.58089 32163 ft 497 kts 142°
2026-04-30 08:59 34.66421 26.60809 32555 ft 497 kts 142°
2026-04-30 09:00 34.63815 26.63494 32932 ft 497 kts 142°
2026-04-30 09:00 34.61143 26.66238 33316 ft 497 kts 142°
2026-04-30 09:00 34.58499 26.68949 33699 ft 497 kts 142°
2026-04-30 09:00 34.55893 26.71621 34076 ft 497 kts 142°
2026-04-30 09:01 34.53243 26.74339 34411 ft 498 kts 142°
2026-04-30 09:01 34.50593 26.77057 34756 ft 497 kts 143°
2026-04-30 09:01 34.47952 26.79763 35111 ft 496 kts 143°
2026-04-30 09:01 34.45311 26.82468 35460 ft 496 kts 143°
2026-04-30 09:02 34.40181 26.87707 36116 ft 494 kts 143°
2026-04-30 09:02 34.37551 26.90391 36440 ft 493 kts 143°
2026-04-30 09:02 34.34926 26.93070 36753 ft 493 kts 143°
2026-04-30 09:03 34.32303 26.95743 37050 ft 492 kts 143°
2026-04-30 09:03 34.29675 26.98419 37354 ft 492 kts 143°
2026-04-30 09:03 34.27059 27.01077 37656 ft 491 kts 143°
2026-04-30 09:03 34.24439 27.03736 37956 ft 491 kts 143°
2026-04-30 09:04 34.21861 27.06352 38261 ft 490 kts 143°
2026-04-30 09:04 34.19136 27.08888 38550 ft 484 kts 153°
2026-04-30 09:04 34.16218 27.10765 38801 ft 481 kts 158°
2026-04-30 09:04 34.13228 27.12583 38990 ft 481 kts 158°
2026-04-30 09:05 34.07224 27.16186 39082 ft 481 kts 158°
2026-04-30 09:05 34.01218 27.19770 39089 ft 481 kts 158°
2026-04-30 09:06 33.95249 27.23346 39091 ft 481 kts 158°
2026-04-30 09:06 33.90258 27.26344 39088 ft 481 kts 158°
2026-04-30 09:07 33.83271 27.30535 39092 ft 481 kts 158°
2026-04-30 09:07 33.78273 27.33514 39085 ft 481 kts 159°
2026-04-30 09:08 33.72255 27.37097 39096 ft 481 kts 159°
2026-04-30 09:08 33.66232 27.40682 39095 ft 482 kts 159°
2026-04-30 09:09 33.60213 27.44262 39092 ft 482 kts 159°
2026-04-30 09:09 33.54219 27.47808 39091 ft 482 kts 159°
2026-04-30 09:10 33.48177 27.51378 39096 ft 483 kts 159°
2026-04-30 09:10 33.42178 27.54936 39097 ft 483 kts 159°
2026-04-30 09:11 33.36137 27.58503 39101 ft 483 kts 159°
2026-04-30 09:11 33.30125 27.62042 39100 ft 484 kts 159°
2026-04-30 09:12 33.24066 27.65616 39099 ft 484 kts 159°
2026-04-30 09:12 33.18015 27.69176 39103 ft 484 kts 159°
2026-04-30 09:13 33.11954 27.72727 39103 ft 484 kts 159°
2026-04-30 09:13 33.05931 27.76256 39101 ft 484 kts 159°
2026-04-30 09:14 32.99871 27.79800 39103 ft 484 kts 160°
2026-04-30 09:14 32.93807 27.83339 39104 ft 484 kts 160°
2026-04-30 09:15 32.87780 27.86858 39104 ft 485 kts 160°
2026-04-30 09:15 32.81717 27.90393 39108 ft 485 kts 160°
2026-04-30 09:16 32.75655 27.93930 39107 ft 484 kts 160°
2026-04-30 09:16 32.69588 27.97453 39104 ft 484 kts 160°
2026-04-30 09:17 32.63517 28.00963 39106 ft 484 kts 160°
2026-04-30 09:17 32.57479 28.04442 39108 ft 484 kts 160°
2026-04-30 09:18 32.51410 28.07944 39110 ft 484 kts 160°
2026-04-30 09:18 32.45341 28.11452 39105 ft 484 kts 160°
2026-04-30 09:19 32.39319 28.14927 39101 ft 484 kts 160°
2026-04-30 09:19 32.33254 28.18413 39097 ft 484 kts 160°
2026-04-30 09:20 32.27173 28.21907 39098 ft 484 kts 160°
2026-04-30 09:20 32.21135 28.25373 39104 ft 484 kts 160°
2026-04-30 09:21 32.15061 28.28854 39104 ft 484 kts 160°
2026-04-30 09:21 32.08981 28.32337 39106 ft 484 kts 160°
2026-04-30 09:22 32.02941 28.35786 39104 ft 484 kts 161°
2026-04-30 09:22 31.96870 28.39249 39099 ft 484 kts 160°
2026-04-30 09:23 31.90788 28.42714 39100 ft 484 kts 161°
2026-04-30 09:23 31.84710 28.46165 39101 ft 485 kts 161°
2026-04-30 09:24 31.78620 28.49617 39102 ft 485 kts 161°
2026-04-30 09:24 31.72559 28.53052 39111 ft 486 kts 161°
2026-04-30 09:25 31.66466 28.56505 39103 ft 486 kts 161°
2026-04-30 09:25 31.60366 28.59950 39103 ft 486 kts 161°
2026-04-30 09:26 31.54257 28.63403 39103 ft 486 kts 161°
2026-04-30 09:26 31.48162 28.66835 39104 ft 486 kts 161°
2026-04-30 09:27 31.42075 28.70261 39105 ft 486 kts 161°
2026-04-30 09:27 31.35969 28.73699 39102 ft 487 kts 161°
2026-04-30 09:28 31.29866 28.77128 39106 ft 487 kts 161°
2026-04-30 09:28 31.23752 28.80547 39106 ft 486 kts 161°
2026-04-30 09:29 31.17633 28.83970 39107 ft 487 kts 161°
2026-04-30 09:29 31.11549 28.87365 39111 ft 487 kts 161°
2026-04-30 09:30 31.05422 28.90781 39110 ft 487 kts 161°
2026-04-30 09:30 30.99290 28.94201 39110 ft 487 kts 161°
2026-04-30 09:31 30.93190 28.97593 39109 ft 487 kts 161°
2026-04-30 09:31 30.87046 29.01005 39110 ft 487 kts 161°
2026-04-30 09:32 30.80923 29.04397 39102 ft 487 kts 161°
2026-04-30 09:32 30.74805 29.07791 39097 ft 487 kts 161°
2026-04-30 09:33 30.68719 29.11165 39102 ft 486 kts 161°
2026-04-30 09:33 30.62605 29.14542 39096 ft 486 kts 161°
2026-04-30 09:34 30.56492 29.17913 39097 ft 486 kts 161°
2026-04-30 09:34 30.50370 29.21284 39090 ft 485 kts 161°
2026-04-30 09:35 30.44294 29.24625 39096 ft 485 kts 161°
2026-04-30 09:35 30.38181 29.27976 39090 ft 485 kts 161°
2026-04-30 09:36 30.32135 29.31463 39090 ft 490 kts 154°
2026-04-30 09:36 30.26860 29.36602 39083 ft 500 kts 138°
2026-04-30 09:37 30.22019 29.42399 39082 ft 500 kts 139°
2026-04-30 09:37 30.17157 29.48195 39085 ft 500 kts 139°
2026-04-30 09:38 30.12328 29.53932 39087 ft 500 kts 139°
2026-04-30 09:38 30.07481 29.59696 39089 ft 500 kts 139°
2026-04-30 09:39 30.02637 29.65457 39089 ft 500 kts 139°
2026-04-30 09:39 29.97784 29.71214 39087 ft 499 kts 139°
2026-04-30 09:40 29.93744 29.75983 39087 ft 498 kts 139°
2026-04-30 09:40 29.88889 29.81714 39086 ft 498 kts 139°
2026-04-30 09:41 29.84069 29.87398 39084 ft 498 kts 139°
2026-04-30 09:41 29.79221 29.93114 39082 ft 497 kts 139°
2026-04-30 09:42 29.74386 29.98805 39082 ft 497 kts 139°
2026-04-30 09:42 29.69544 30.04495 39081 ft 496 kts 139°
2026-04-30 09:43 29.64738 30.10137 39081 ft 495 kts 139°
2026-04-30 09:43 29.59900 30.15799 39080 ft 494 kts 140°
2026-04-30 09:44 29.55096 30.21413 39076 ft 494 kts 140°
2026-04-30 09:44 29.50278 30.27047 39075 ft 493 kts 140°
2026-04-30 09:45 29.45453 30.32666 39073 ft 493 kts 140°
2026-04-30 09:45 29.40653 30.38244 39069 ft 493 kts 140°
2026-04-30 09:46 29.35858 30.43881 39067 ft 493 kts 139°
2026-04-30 09:46 29.31106 30.49581 39069 ft 493 kts 139°
2026-04-30 09:47 29.26361 30.55281 39072 ft 493 kts 139°
2026-04-30 09:47 29.21632 30.60926 39076 ft 493 kts 139°
2026-04-30 09:48 29.16856 30.66589 39074 ft 492 kts 139°
2026-04-30 09:48 29.12112 30.72212 39073 ft 492 kts 139°
2026-04-30 09:49 29.07342 30.77866 39075 ft 492 kts 139°
2026-04-30 09:49 29.02605 30.83471 39070 ft 492 kts 139°
2026-04-30 09:50 28.97830 30.89121 39067 ft 492 kts 139°
2026-04-30 09:50 28.93082 30.94717 39068 ft 492 kts 140°
2026-04-30 09:51 28.88307 31.00348 39069 ft 492 kts 140°
2026-04-30 09:51 28.83560 31.05937 39068 ft 492 kts 140°
2026-04-30 09:52 28.78785 31.11553 39074 ft 492 kts 140°
2026-04-30 09:52 28.73997 31.17173 39076 ft 492 kts 140°
2026-04-30 09:53 28.69240 31.22749 39076 ft 493 kts 139°
2026-04-30 09:53 28.64572 31.28521 39076 ft 495 kts 137°
2026-04-30 09:54 28.60033 31.34366 39086 ft 495 kts 137°
2026-04-30 09:54 28.55450 31.40227 39087 ft 495 kts 137°
2026-04-30 09:55 28.50811 31.46056 39097 ft 495 kts 138°
2026-04-30 09:55 28.46167 31.51855 39089 ft 495 kts 138°
2026-04-30 09:56 28.41518 31.57647 39090 ft 496 kts 138°
2026-04-30 09:56 28.36898 31.63420 39089 ft 496 kts 138°
2026-04-30 09:57 28.32241 31.69237 39090 ft 496 kts 139°
2026-04-30 09:57 28.27604 31.75021 39084 ft 497 kts 139°
2026-04-30 09:58 28.22971 31.80800 39079 ft 497 kts 139°
2026-04-30 09:58 28.18292 31.86622 39082 ft 498 kts 139°
2026-04-30 09:59 28.08944 31.98208 39076 ft 498 kts 139°
2026-04-30 10:00 28.02284 32.07348 39063 ft 510 kts 125°
2026-04-30 10:01 27.97204 32.17966 39049 ft 513 kts 124°
2026-04-30 10:02 27.92055 32.28600 39026 ft 514 kts 124°
2026-04-30 10:02 27.88619 32.35684 39019 ft 514 kts 124°
2026-04-30 10:03 27.85196 32.42760 39004 ft 515 kts 124°
2026-04-30 10:03 27.81746 32.49881 39006 ft 516 kts 124°
2026-04-30 10:04 27.78276 32.57001 39005 ft 516 kts 124°
2026-04-30 10:04 27.74804 32.64127 39002 ft 517 kts 124°
2026-04-30 10:05 27.71354 32.71219 39002 ft 518 kts 125°
2026-04-30 10:05 27.67866 32.78363 39002 ft 518 kts 125°
2026-04-30 10:06 27.64377 32.85489 39002 ft 518 kts 125°
2026-04-30 10:06 27.60900 32.92576 39003 ft 519 kts 125°
2026-04-30 10:07 27.57397 32.99723 38996 ft 520 kts 125°
2026-04-30 10:07 27.53892 33.06862 38994 ft 520 kts 125°
2026-04-30 10:08 27.50391 33.13978 38995 ft 522 kts 125°
2026-04-30 10:08 27.46854 33.21143 38996 ft 522 kts 126°
2026-04-30 10:09 27.43307 33.28307 38996 ft 523 kts 126°
2026-04-30 10:09 27.39774 33.35446 38996 ft 524 kts 126°
2026-04-30 10:10 27.36210 33.42629 38990 ft 525 kts 126°
2026-04-30 10:10 27.32639 33.49830 38987 ft 526 kts 126°
2026-04-30 10:11 27.29053 33.57044 38990 ft 527 kts 126°
2026-04-30 10:11 27.25485 33.64206 38988 ft 528 kts 126°
2026-04-30 10:12 27.21876 33.71429 38989 ft 529 kts 126°
2026-04-30 10:12 27.18158 33.78555 38990 ft 523 kts 133°
2026-04-30 10:13 27.14258 33.83600 38990 ft 510 kts 144°
2026-04-30 10:13 27.09211 33.89237 38992 ft 510 kts 144°
2026-04-30 10:14 27.04159 33.94882 38992 ft 511 kts 144°
2026-04-30 10:14 26.96606 34.03310 38349 ft 513 kts 145°
2026-04-30 10:15 26.94058 34.06150 37449 ft 516 kts 144°
2026-04-30 10:15 26.91533 34.08966 36538 ft 518 kts 143°
2026-04-30 10:15 26.88960 34.11832 35528 ft 522 kts 142°
2026-04-30 10:15 26.86314 34.14628 34456 ft 520 kts 147°
2026-04-30 10:16 26.83393 34.16907 33777 ft 496 kts 156°
2026-04-30 10:16 26.80361 34.18604 33174 ft 479 kts 165°
2026-04-30 10:16 26.77241 34.19777 32567 ft 466 kts 172°
2026-04-30 10:17 26.71087 34.21711 31400 ft 457 kts 172°
2026-04-30 10:17 26.64999 34.23610 30250 ft 449 kts 172°
2026-04-30 10:17 26.61985 34.24544 29640 ft 446 kts 172°
2026-04-30 10:18 26.59049 34.25456 29098 ft 440 kts 172°
2026-04-30 10:18 26.56100 34.26374 28557 ft 435 kts 171°
2026-04-30 10:18 26.53192 34.27277 28016 ft 431 kts 172°
2026-04-30 10:19 26.47469 34.29049 26999 ft 422 kts 171°
2026-04-30 10:19 26.44633 34.29930 26513 ft 419 kts 171°
2026-04-30 10:19 26.41875 34.30789 26033 ft 415 kts 171°
2026-04-30 10:19 26.39090 34.31658 25549 ft 412 kts 171°
2026-04-30 10:20 26.36335 34.32516 25069 ft 409 kts 171°
2026-04-30 10:20 26.30867 34.34209 24089 ft 404 kts 171°
2026-04-30 10:20 26.28160 34.35045 23587 ft 402 kts 171°
2026-04-30 10:21 26.25497 34.35866 23031 ft 400 kts 171°
2026-04-30 10:21 26.22813 34.36694 22521 ft 397 kts 171°
2026-04-30 10:21 26.20158 34.37514 22016 ft 394 kts 170°
2026-04-30 10:21 26.17523 34.38327 21514 ft 392 kts 170°
2026-04-30 10:22 26.14898 34.39138 21015 ft 390 kts 170°
2026-04-30 10:22 26.12311 34.39939 20503 ft 388 kts 170°
2026-04-30 10:22 26.11432 34.40212 20340 ft 388 kts 170°
2026-04-30 10:22 26.10085 34.40634 20152 ft 384 kts 169°
2026-04-30 10:23 26.07494 34.41442 19560 ft 386 kts 169°
2026-04-30 10:23 26.04898 34.42244 19066 ft 385 kts 169°
2026-04-30 10:23 26.02345 34.43027 18569 ft 384 kts 169°
2026-04-30 10:23 25.99769 34.43829 18045 ft 385 kts 167°
2026-04-30 10:24 25.97289 34.45032 17525 ft 389 kts 153°
2026-04-30 10:24 25.95016 34.46570 16992 ft 377 kts 152°
2026-04-30 10:24 25.92771 34.48090 16611 ft 375 kts 152°
2026-04-30 10:24 25.90577 34.49570 16246 ft 372 kts 152°
2026-04-30 10:25 25.88370 34.51059 15835 ft 369 kts 151°
2026-04-30 10:25 25.86281 34.52709 15426 ft 367 kts 145°
2026-04-30 10:25 25.84244 34.54414 15018 ft 364 kts 145°
2026-04-30 10:25 25.82224 34.56105 14622 ft 361 kts 145°
2026-04-30 10:26 25.80219 34.57782 14229 ft 358 kts 145°
2026-04-30 10:26 25.78261 34.59416 13817 ft 355 kts 145°
2026-04-30 10:26 25.76293 34.61059 13367 ft 353 kts 145°
2026-04-30 10:26 25.74334 34.62696 12907 ft 350 kts 145°
2026-04-30 10:27 25.72399 34.64309 12443 ft 347 kts 145°
2026-04-30 10:27 25.70477 34.65912 11978 ft 345 kts 144°
2026-04-30 10:27 25.68563 34.67509 11496 ft 343 kts 144°
2026-04-30 10:27 25.66660 34.69095 11015 ft 340 kts 144°
2026-04-30 10:28 25.64801 34.70643 10534 ft 326 kts 145°
2026-04-30 10:28 25.63024 34.72122 10098 ft 314 kts 145°
2026-04-30 10:28 25.61279 34.73574 9745 ft 311 kts 145°
2026-04-30 10:28 25.59577 34.74988 9343 ft 308 kts 145°
2026-04-30 10:29 25.57878 34.76401 8929 ft 301 kts 145°
2026-04-30 10:29 25.56239 34.77766 8533 ft 286 kts 145°
2026-04-30 10:29 25.54688 34.79058 8180 ft 272 kts 145°
2026-04-30 10:29 25.53207 34.80289 7835 ft 259 kts 145°
2026-04-30 10:30 25.51788 34.81457 7495 ft 248 kts 148°
2026-04-30 10:30 25.50236 34.82220 7172 ft 243 kts 171°
2026-04-30 10:30 25.48586 34.82288 6844 ft 239 kts 193°
2026-04-30 10:30 25.47040 34.81690 6540 ft 233 kts 214°
2026-04-30 10:31 25.45823 34.80545 6226 ft 227 kts 235°
2026-04-30 10:31 25.44986 34.79083 5870 ft 225 kts 243°
2026-04-30 10:31 25.44192 34.77576 5434 ft 226 kts 243°
2026-04-30 10:31 25.43404 34.76088 5022 ft 219 kts 243°
2026-04-30 10:32 25.42660 34.74692 4742 ft 208 kts 243°
2026-04-30 10:32 25.41942 34.73338 4432 ft 199 kts 243°
2026-04-30 10:32 25.41266 34.72062 4167 ft 186 kts 244°
2026-04-30 10:32 25.40627 34.70854 3910 ft 177 kts 244°
2026-04-30 10:33 25.40229 34.69633 3672 ft 164 kts 271°
2026-04-30 10:33 25.40495 34.68439 3438 ft 160 kts 302°
2026-04-30 10:33 25.41315 34.67606 3200 ft 162 kts 330°
2026-04-30 10:33 25.42300 34.66980 2949 ft 165 kts 330°
2026-04-30 10:34 25.43289 34.66347 2708 ft 167 kts 330°
2026-04-30 10:34 25.44299 34.65702 2457 ft 168 kts 331°
2026-04-30 10:34 25.45266 34.65081 2240 ft 148 kts 331°
2026-04-30 10:34 25.46094 34.64547 2022 ft 130 kts 332°
2026-04-30 10:35 25.46854 34.64050 1858 ft 125 kts 333°
2026-04-30 10:35 25.47585 34.63564 1712 ft 122 kts 332°
2026-04-30 10:35 25.48302 34.63076 1635 ft 120 kts 335°
2026-04-30 10:35 25.49031 34.62623 1588 ft 121 kts 335°
2026-04-30 10:36 25.49777 34.62174 1466 ft 122 kts 336°
2026-04-30 10:36 25.50523 34.61738 1329 ft 121 kts 332°
2026-04-30 10:36 25.51254 34.61276 1090 ft 120 kts 330°
2026-04-30 10:36 25.51959 34.60789 892 ft 120 kts 332°
2026-04-30 10:37 25.52687 34.60318 723 ft 121 kts 333°
2026-04-30 10:37 25.53424 34.59846 538 ft 122 kts 331°
2026-04-30 10:37 25.54149 34.59371 367 ft 119 kts 334°
2026-04-30 10:37 25.54854 34.58921 270 ft 116 kts 334°
2026-04-30 10:38 25.55462 34.58542 256 ft 79 kts 330°
2026-04-30 10:38 25.55786 34.58331 261 ft 32 kts 330°
2026-04-30 10:38 25.55953 34.58224 263 ft 22 kts 330°
2026-04-30 10:38 25.56071 34.58183 260 ft 15 kts
2026-04-30 10:39 25.56070 34.58145 260 ft 11 kts 153°
2026-04-30 10:39 25.56008 34.58189 261 ft 10 kts 148°
2026-04-30 10:39 25.55924 34.58244 263 ft 17 kts 150°
2026-04-30 10:39 25.55838 34.58298 262 ft 17 kts 151°
2026-04-30 10:40 25.55789 34.58330 261 ft 18 kts 150°
2026-04-30 10:40 25.55693 34.58392 261 ft 17 kts 148°
2026-04-30 10:40 25.55587 34.58462 260 ft 18 kts 149°
2026-04-30 10:40 25.55489 34.58549 257 ft 17 kts 102°
2026-04-30 10:41 25.55539 34.58673 256 ft 20 kts 60°
2026-04-30 10:41 25.55611 34.58806 245 ft 21 kts 59°
2026-04-30 10:41 25.55596 34.58912 242 ft 15 kts 146°
2026-04-30 10:41 25.55505 34.58971 242 ft 15 kts 149°
2026-04-30 10:42 25.55441 34.59023 242 ft 7 kts 101°
2026-04-30 10:42 25.55465 34.59079 242 ft 8 kts 59°
2026-04-30 10:42 25.55468 34.59085 242 ft 0 kts 60°